Sisseton, SD

7:15 AM CDT on May 25, 2017 (GMT -0500)
Sisseton

Weather History for K8D3 - September, 2013

Change the Weather History Date:

Saturday, September 21, 2013

  Actual Average Record
Temperature  
Mean Temperature 51 °F 58 °F  
Max Temperature 68 °F 70 °F 97 °F (1937)
Min Temperature 33 °F 45 °F 22 °F (1934)
Degree Days  
Heating Degree Days 14 8  
Month to date heating degree days 83 111  
Since 1 July heating degree days 132 154  
Cooling Degree Days 0 1  
Month to date cooling degree days 76 40  
Year to date cooling degree days 611 519  
Moisture  
Dew Point 40 °F    
Average Humidity 69    
Maximum Humidity 100    
Minimum Humidity 37    
Precipitation  
Precipitation 0.00 in 0.08 in 1.83 in (1989)
Month to date precipitation 0.95 1.73  
Year to date precipitation 19.62 18.47  
Sea Level Pressure  
Sea Level Pressure 29.95 in    
Wind  
Wind Speed 4 mph (SSE)    
Max Wind Speed 10 mph    
Max Gust Speed 16 mph    
T = Trace of Precipitation, MM = Missing Value Source: NWS Daily Summary

Daily Weather History Graph

Daily Weather History Graph

Search for Another Location

Airport or City:

Trip Planner

Search our weather history database for the weather conditions in past years. The results will help you decide how hot, cold, wet, or windy it might be!

Date:

Astronomy

Sep. 21, 2013 Rise Set
Actual Time 7:14 AM CDT 7:26 PM CDT
Civil Twilight 6:44 AM CDT 7:56 PM CDT
Nautical Twilight 6:09 AM CDT 8:31 PM CDT
Astronomical Twilight 5:33 AM CDT 9:07 PM CDT
Moon 8:28 PM CDT (9/21) 9:43 AM CDT (9/21)
Length of Visible Light 13h 12m
Length of Day
12h 12m
Waning Gibbous, 94% of the Moon is Illuminated
Sep 21
Waning Gibbous
Sep 26
Last Quarter
Oct 4
New
Oct 11
First Quarter
Oct 18
Full

Hourly Weather History & Observations

Time (CDT) Temp. Windchill Dew Point Humidity Pressure Visibility Wind Dir Wind Speed Gust Speed Precip Events Conditions
12:56 AM 37.0 °F - 36.0 °F 96% 30.00 in - Calm Calm - N/A   Unknown
1:56 AM 37.9 °F 35.5 °F 37.0 °F 97% 30.01 in - WNW 3.5 mph - N/A   Unknown
2:56 AM 36.0 °F - 35.1 °F 97% 30.01 in - Calm Calm - N/A   Unknown
3:56 AM 35.1 °F - 34.0 °F 96% 30.00 in - Calm Calm - N/A   Unknown
4:56 AM 36.0 °F 33.3 °F 35.1 °F 97% 30.00 in - NW 3.5 mph - N/A   Unknown
5:56 AM 34.0 °F - 33.1 °F 96% 30.01 in - Calm Calm - N/A   Unknown
6:56 AM 33.1 °F - 32.0 °F 96% 30.01 in - Calm Calm - N/A   Unknown
7:56 AM 37.9 °F - 37.0 °F 97% 30.04 in - Calm Calm - N/A   Unknown
8:56 AM 46.9 °F - 44.1 °F 90% 30.03 in - Calm Calm - N/A   Unknown
9:56 AM 52.0 °F - 46.0 °F 80% 30.03 in - SSE 3.5 mph - N/A   Unknown
10:56 AM 55.0 °F - 45.0 °F 69% 30.02 in - ESE 3.5 mph - N/A   Unknown
11:56 AM 57.9 °F - 44.1 °F 60% 30.00 in - SE 9.2 mph - N/A   Unknown
12:56 PM 61.0 °F - 43.0 °F 52% 29.98 in - SSE 4.6 mph - N/A   Unknown
1:56 PM 63.0 °F - 44.1 °F 50% 29.94 in - Calm Calm - N/A   Unknown
2:56 PM 64.9 °F - 42.1 °F 43% 29.92 in - Variable 4.6 mph - N/A   Unknown
3:56 PM 66.9 °F - 42.1 °F 40% 29.89 in - Variable 3.5 mph - N/A   Unknown
4:56 PM 66.9 °F - 39.0 °F 36% 29.87 in - SE 5.8 mph - N/A   Unknown
5:56 PM 66.0 °F - 41.0 °F 40% 29.86 in - SE 8.1 mph - N/A   Unknown
6:56 PM 63.0 °F - 42.1 °F 46% 29.86 in - SE 5.8 mph - N/A   Unknown
7:56 PM 54.0 °F - 44.1 °F 69% 29.86 in - SE 5.8 mph - N/A   Unknown
8:56 PM 50.0 °F - 44.1 °F 80% 29.87 in - South 3.5 mph - N/A   Unknown
9:56 PM 46.9 °F - 43.0 °F 86% 29.87 in - South 3.5 mph - N/A   Unknown
10:56 PM 46.9 °F - 44.1 °F 90% 29.87 in - South 5.8 mph - N/A   Unknown
11:56 PM 45.0 °F 43.5 °F 43.0 °F 93% 29.86 in - South 3.5 mph - N/A   Unknown